Starlink 11088

operational
NORAD ID: 59709 Int'l Des: 2024-088 Owner: SPXS Country: US Constellation: starlink
LEOCIRCULAR

Starlink 11088について

説明を読み込み中...

リアルタイム位置

3D地球を読み込み中...

次回通過

高度履歴

Altitude vs Time

uPlot chart will show altitude changes over time

軌道要素

1 59709U 24088B 26034.53475500 -.00033974 00000-0 -27712-3 0 9996
2 59709 53.1584 134.9518 0002014 50.7718 309.3479 15.69671095100908
Epoch: Feb 3, 2026 • Age: 22 hours

現在のステータス

高度 360.6 km
速度 7.70 km/s
衛星直下点 13.96°N, 1.37°E
打ち上げ日 May 10, 2024
運用期間 1.7 years
タイプ internet

技術仕様

分類 Payload
質量 960.00 kg
乾燥質量 910.00 kg
総質量 960.00 kg
長さ 0.30 m
直径 4.10 m
スパン 29.00 m
形状 Box + pan
製造者 SPXS
バスタイプ Starlink V2MD
フェーズステータス In Orbit
所有者/国 SPXS/US

大規模コンステレーション

Loading constellations...